View from above orbital plane
|
View from above satellite
|
Ground track
|
The orbit data is extracted from the following two-line orbital elements,
1 33410U 08053C 21016.84775331 .00000323 00000-0 27757-4 0 9995
2 33410 97.8773 11.3630 0119893 123.3454 237.9314 14.99343851666746
Epoch (UTC): | 16 January 2021 20:20:45 |
Eccentricity: | 0.0119893 |
inclination: | 97.8773° |
perigee height: | 485 km |
apogee height: | 652 km |
right ascension of ascending node: | 11.3630° |
argument of perigee: | 123.3454° |
revolutions per day: | 14.99343851 |
mean anomaly at epoch: | 237.9314° |
orbit number at epoch: | 66674 |
The dashed part of the orbit path shows where the satellite is in the earth's shadow,
|
|